owner,sensor,date,latitude,longitude,sea_surface_height_above_sea_level,qcFlag 
TCOON,ioos:station:TCOON:057:1,2017-09-01T00:18:00Z,28.4460,-96.3961,3.595,1111122 
TCOON,ioos:station:TCOON:057:1,2017-09-01T01:18:00Z,28.4460,-96.3961,3.583,1111122 
TCOON,ioos:station:TCOON:057:1,2017-09-01T02:18:00Z,28.4460,-96.3961,3.589,1111122 
TCOON,ioos:station:TCOON:057:1,2017-09-01T03:18:00Z,28.4460,-96.3961,3.599,1111122 
TCOON,ioos:station:TCOON:057:1,2017-09-01T04:18:00Z,28.4460,-96.3961,3.615,1111122 
TCOON,ioos:station:TCOON:057:1,2017-09-01T05:18:00Z,28.4460,-96.3961,3.632,1111122 
TCOON,ioos:station:TCOON:057:1,2017-09-01T06:18:00Z,28.4460,-96.3961,3.656,1111122 
TCOON,ioos:station:TCOON:057:1,2017-09-01T07:18:00Z,28.4460,-96.3961,3.683,1111122 
TCOON,ioos:station:TCOON:057:1,2017-09-01T08:18:00Z,28.4460,-96.3961,3.72,1111122 
TCOON,ioos:station:TCOON:057:1,2017-09-01T09:18:00Z,28.4460,-96.3961,3.748,1111122 
TCOON,ioos:station:TCOON:057:1,2017-09-01T10:18:00Z,28.4460,-96.3961,3.773,1111122 
TCOON,ioos:station:TCOON:057:1,2017-09-01T11:18:00Z,28.4460,-96.3961,3.786,1111122 
TCOON,ioos:station:TCOON:057:1,2017-09-01T12:18:00Z,28.4460,-96.3961,3.795,1111122 
TCOON,ioos:station:TCOON:057:1,2017-09-01T13:18:00Z,28.4460,-96.3961,3.807,1111122 
TCOON,ioos:station:TCOON:057:1,2017-09-01T14:18:00Z,28.4460,-96.3961,3.813,1111122 
TCOON,ioos:station:TCOON:057:1,2017-09-01T15:18:00Z,28.4460,-96.3961,3.804,1111122 
TCOON,ioos:station:TCOON:057:1,2017-09-01T16:18:00Z,28.4460,-96.3961,3.803,1111122 
TCOON,ioos:station:TCOON:057:1,2017-09-01T17:18:00Z,28.4460,-96.3961,3.797,1111122 
TCOON,ioos:station:TCOON:057:1,2017-09-01T18:18:00Z,28.4460,-96.3961,3.78,1111122 
TCOON,ioos:station:TCOON:057:1,2017-09-01T19:18:00Z,28.4460,-96.3961,3.772,1111122 
TCOON,ioos:station:TCOON:057:1,2017-09-01T20:18:00Z,28.4460,-96.3961,3.758,1111122 
TCOON,ioos:station:TCOON:057:1,2017-09-01T21:18:00Z,28.4460,-96.3961,3.731,1111122 
TCOON,ioos:station:TCOON:057:1,2017-09-01T22:18:00Z,28.4460,-96.3961,3.717,1111122 
TCOON,ioos:station:TCOON:057:1,2017-09-02T00:18:00Z,28.4460,-96.3961,3.682,1111122 
TCOON,ioos:station:TCOON:057:1,2017-09-02T01:18:00Z,28.4460,-96.3961,3.657,1111122 
TCOON,ioos:station:TCOON:057:1,2017-09-02T02:18:00Z,28.4460,-96.3961,3.657,1111122 
TCOON,ioos:station:TCOON:057:1,2017-09-02T03:18:00Z,28.4460,-96.3961,3.658,1111122 
TCOON,ioos:station:TCOON:057:1,2017-09-02T04:18:00Z,28.4460,-96.3961,3.668,1111122 
TCOON,ioos:station:TCOON:057:1,2017-09-02T05:18:00Z,28.4460,-96.3961,3.696,1111122 
TCOON,ioos:station:TCOON:057:1,2017-09-02T06:18:00Z,28.4460,-96.3961,3.715,1111122 
TCOON,ioos:station:TCOON:057:1,2017-09-02T07:18:00Z,28.4460,-96.3961,3.738,1111122 
TCOON,ioos:station:TCOON:057:1,2017-09-02T08:18:00Z,28.4460,-96.3961,3.764,1111122 
TCOON,ioos:station:TCOON:057:1,2017-09-02T09:18:00Z,28.4460,-96.3961,3.794,1111122 
TCOON,ioos:station:TCOON:057:1,2017-09-02T10:18:00Z,28.4460,-96.3961,3.813,1111122 
TCOON,ioos:station:TCOON:057:1,2017-09-02T11:18:00Z,28.4460,-96.3961,3.844,1111122 
TCOON,ioos:station:TCOON:057:1,2017-09-02T12:18:00Z,28.4460,-96.3961,3.848,1111122 
TCOON,ioos:station:TCOON:057:1,2017-09-02T13:18:00Z,28.4460,-96.3961,3.852,1111122 
TCOON,ioos:station:TCOON:057:1,2017-09-02T14:18:00Z,28.4460,-96.3961,3.855,1111122 
TCOON,ioos:station:TCOON:057:1,2017-09-02T15:18:00Z,28.4460,-96.3961,3.853,1111122 
TCOON,ioos:station:TCOON:057:1,2017-09-02T16:18:00Z,28.4460,-96.3961,3.844,1111122 
TCOON,ioos:station:TCOON:057:1,2017-09-02T17:18:00Z,28.4460,-96.3961,3.838,1111122 
TCOON,ioos:station:TCOON:057:1,2017-09-02T18:18:00Z,28.4460,-96.3961,3.821,1111122 
TCOON,ioos:station:TCOON:057:1,2017-09-02T19:18:00Z,28.4460,-96.3961,3.811,1111122 
TCOON,ioos:station:TCOON:057:1,2017-09-02T20:18:00Z,28.4460,-96.3961,3.794,1111122 
TCOON,ioos:station:TCOON:057:1,2017-09-02T21:18:00Z,28.4460,-96.3961,3.798,1111122 
TCOON,ioos:station:TCOON:057:1,2017-09-02T22:18:00Z,28.4460,-96.3961,3.762,1111122 
TCOON,ioos:station:TCOON:057:1,2017-09-02T23:18:00Z,28.4460,-96.3961,3.746,1111122 
TCOON,ioos:station:TCOON:057:1,2017-09-03T00:18:00Z,28.4460,-96.3961,3.731,1111122 
TCOON,ioos:station:TCOON:057:1,2017-09-03T01:18:00Z,28.4460,-96.3961,3.713,1111122 
TCOON,ioos:station:TCOON:057:1,2017-09-03T02:18:00Z,28.4460,-96.3961,3.699,1111122 
TCOON,ioos:station:TCOON:057:1,2017-09-03T03:18:00Z,28.4460,-96.3961,3.688,1111122 
TCOON,ioos:station:TCOON:057:1,2017-09-03T04:18:00Z,28.4460,-96.3961,3.688,1111122 
TCOON,ioos:station:TCOON:057:1,2017-09-03T05:18:00Z,28.4460,-96.3961,3.695,1111122 
TCOON,ioos:station:TCOON:057:1,2017-09-03T06:18:00Z,28.4460,-96.3961,3.702,1111122 
TCOON,ioos:station:TCOON:057:1,2017-09-03T07:18:00Z,28.4460,-96.3961,3.717,1111122 
TCOON,ioos:station:TCOON:057:1,2017-09-03T08:18:00Z,28.4460,-96.3961,3.75,1111122 
TCOON,ioos:station:TCOON:057:1,2017-09-03T09:18:00Z,28.4460,-96.3961,3.774,1111122 
TCOON,ioos:station:TCOON:057:1,2017-09-03T10:18:00Z,28.4460,-96.3961,3.805,1111122 
TCOON,ioos:station:TCOON:057:1,2017-09-03T11:18:00Z,28.4460,-96.3961,3.826,1111122 
TCOON,ioos:station:TCOON:057:1,2017-09-03T12:18:00Z,28.4460,-96.3961,3.844,1111122 
TCOON,ioos:station:TCOON:057:1,2017-09-03T13:18:00Z,28.4460,-96.3961,3.851,1111122 
TCOON,ioos:station:TCOON:057:1,2017-09-03T14:18:00Z,28.4460,-96.3961,3.845,1111122 
TCOON,ioos:station:TCOON:057:1,2017-09-03T15:18:00Z,28.4460,-96.3961,3.856,1111122 
TCOON,ioos:station:TCOON:057:1,2017-09-03T16:18:00Z,28.4460,-96.3961,3.848,1111122 
TCOON,ioos:station:TCOON:057:1,2017-09-03T17:18:00Z,28.4460,-96.3961,3.85,1111122 
TCOON,ioos:station:TCOON:057:1,2017-09-03T18:18:00Z,28.4460,-96.3961,3.828,1111122 
TCOON,ioos:station:TCOON:057:1,2017-09-03T19:18:00Z,28.4460,-96.3961,3.82,1111122 
TCOON,ioos:station:TCOON:057:1,2017-09-03T20:18:00Z,28.4460,-96.3961,3.812,1111122 
TCOON,ioos:station:TCOON:057:1,2017-09-03T21:18:00Z,28.4460,-96.3961,3.786,1111122 
TCOON,ioos:station:TCOON:057:1,2017-09-03T22:18:00Z,28.4460,-96.3961,3.791,1111122 
TCOON,ioos:station:TCOON:057:1,2017-09-03T23:18:00Z,28.4460,-96.3961,3.76,1111122 
TCOON,ioos:station:TCOON:057:1,2017-09-04T00:18:00Z,28.4460,-96.3961,3.746,1111122 
TCOON,ioos:station:TCOON:057:1,2017-09-04T01:18:00Z,28.4460,-96.3961,3.717,1111122 
TCOON,ioos:station:TCOON:057:1,2017-09-04T02:18:00Z,28.4460,-96.3961,3.705,1111122 
TCOON,ioos:station:TCOON:057:1,2017-09-04T03:18:00Z,28.4460,-96.3961,3.683,1111122 
TCOON,ioos:station:TCOON:057:1,2017-09-04T04:18:00Z,28.4460,-96.3961,3.703,1111122 
TCOON,ioos:station:TCOON:057:1,2017-09-04T05:18:00Z,28.4460,-96.3961,3.696,1111122 
TCOON,ioos:station:TCOON:057:1,2017-09-04T06:18:00Z,28.4460,-96.3961,3.708,1111122 
TCOON,ioos:station:TCOON:057:1,2017-09-04T07:18:00Z,28.4460,-96.3961,3.734,1111122 
TCOON,ioos:station:TCOON:057:1,2017-09-04T08:18:00Z,28.4460,-96.3961,3.751,1111122 
TCOON,ioos:station:TCOON:057:1,2017-09-04T09:18:00Z,28.4460,-96.3961,3.78,1111122 
TCOON,ioos:station:TCOON:057:1,2017-09-04T10:18:00Z,28.4460,-96.3961,3.819,1111122 
TCOON,ioos:station:TCOON:057:1,2017-09-04T11:18:00Z,28.4460,-96.3961,3.841,1111122 
TCOON,ioos:station:TCOON:057:1,2017-09-04T12:18:00Z,28.4460,-96.3961,3.851,1111122 
TCOON,ioos:station:TCOON:057:1,2017-09-04T13:18:00Z,28.4460,-96.3961,3.883,1111122 
TCOON,ioos:station:TCOON:057:1,2017-09-04T14:18:00Z,28.4460,-96.3961,3.878,1111122 
TCOON,ioos:station:TCOON:057:1,2017-09-04T15:18:00Z,28.4460,-96.3961,3.886,1111122 
TCOON,ioos:station:TCOON:057:1,2017-09-04T16:18:00Z,28.4460,-96.3961,3.89,1111122 
TCOON,ioos:station:TCOON:057:1,2017-09-04T17:18:00Z,28.4460,-96.3961,3.885,1111122 
TCOON,ioos:station:TCOON:057:1,2017-09-04T18:18:00Z,28.4460,-96.3961,3.869,1111122 
TCOON,ioos:station:TCOON:057:1,2017-09-04T19:18:00Z,28.4460,-96.3961,3.859,1111122 
TCOON,ioos:station:TCOON:057:1,2017-09-04T20:18:00Z,28.4460,-96.3961,3.852,1111122 
TCOON,ioos:station:TCOON:057:1,2017-09-04T21:18:00Z,28.4460,-96.3961,3.832,1111122 
TCOON,ioos:station:TCOON:057:1,2017-09-04T22:18:00Z,28.4460,-96.3961,3.824,1111122 
TCOON,ioos:station:TCOON:057:1,2017-09-05T00:18:00Z,28.4460,-96.3961,3.783,1111122 
TCOON,ioos:station:TCOON:057:1,2017-09-05T01:18:00Z,28.4460,-96.3961,3.756,1111122 
TCOON,ioos:station:TCOON:057:1,2017-09-05T02:18:00Z,28.4460,-96.3961,3.736,1111122 
TCOON,ioos:station:TCOON:057:1,2017-09-05T03:18:00Z,28.4460,-96.3961,3.726,1111122 
TCOON,ioos:station:TCOON:057:1,2017-09-05T04:18:00Z,28.4460,-96.3961,3.728,1111122 
TCOON,ioos:station:TCOON:057:1,2017-09-05T05:18:00Z,28.4460,-96.3961,3.705,1111122 
TCOON,ioos:station:TCOON:057:1,2017-09-05T06:18:00Z,28.4460,-96.3961,3.73,1111122 
TCOON,ioos:station:TCOON:057:1,2017-09-05T07:18:00Z,28.4460,-96.3961,3.735,1111122 
TCOON,ioos:station:TCOON:057:1,2017-09-05T08:18:00Z,28.4460,-96.3961,3.759,1111122 
TCOON,ioos:station:TCOON:057:1,2017-09-05T09:18:00Z,28.4460,-96.3961,3.786,1111122 
TCOON,ioos:station:TCOON:057:1,2017-09-05T10:18:00Z,28.4460,-96.3961,3.816,1111122 
TCOON,ioos:station:TCOON:057:1,2017-09-05T11:18:00Z,28.4460,-96.3961,3.836,1111122 
TCOON,ioos:station:TCOON:057:1,2017-09-05T12:18:00Z,28.4460,-96.3961,3.856,1111122 
TCOON,ioos:station:TCOON:057:1,2017-09-05T13:18:00Z,28.4460,-96.3961,3.878,1111122 
TCOON,ioos:station:TCOON:057:1,2017-09-05T14:18:00Z,28.4460,-96.3961,3.88,1111122 
TCOON,ioos:station:TCOON:057:1,2017-09-05T15:30:00Z,28.4460,-96.3961,3.888,1111122 
TCOON,ioos:station:TCOON:057:1,2017-09-05T16:18:00Z,28.4460,-96.3961,3.881,1111122 
TCOON,ioos:station:TCOON:057:1,2017-09-05T17:24:00Z,28.4460,-96.3961,3.866,1111122 
TCOON,ioos:station:TCOON:057:1,2017-09-05T18:18:00Z,28.4460,-96.3961,3.877,1111122 
TCOON,ioos:station:TCOON:057:1,2017-09-05T19:18:00Z,28.4460,-96.3961,3.881,1111122 
TCOON,ioos:station:TCOON:057:1,2017-09-05T20:18:00Z,28.4460,-96.3961,3.856,1111122 
TCOON,ioos:station:TCOON:057:1,2017-09-05T21:18:00Z,28.4460,-96.3961,3.859,1111122 
TCOON,ioos:station:TCOON:057:1,2017-09-05T22:18:00Z,28.4460,-96.3961,3.834,1111122 
TCOON,ioos:station:TCOON:057:1,2017-09-05T23:18:00Z,28.4460,-96.3961,3.829,1111122 
TCOON,ioos:station:TCOON:057:1,2017-09-06T00:18:00Z,28.4460,-96.3961,3.836,1111122 
TCOON,ioos:station:TCOON:057:1,2017-09-06T01:18:00Z,28.4460,-96.3961,3.808,1111122 
TCOON,ioos:station:TCOON:057:1,2017-09-07T14:36:00Z,28.4460,-96.3961,3.907,1111122 
TCOON,ioos:station:TCOON:057:1,2017-09-07T15:18:00Z,28.4460,-96.3961,3.898,1111122 
TCOON,ioos:station:TCOON:057:1,2017-09-07T16:18:00Z,28.4460,-96.3961,3.888,1111122 
TCOON,ioos:station:TCOON:057:1,2017-09-07T17:18:00Z,28.4460,-96.3961,3.893,1111122 
TCOON,ioos:station:TCOON:057:1,2017-09-07T18:18:00Z,28.4460,-96.3961,3.885,1111122 
TCOON,ioos:station:TCOON:057:1,2017-09-07T19:18:00Z,28.4460,-96.3961,3.916,1111122 
TCOON,ioos:station:TCOON:057:1,2017-09-07T20:18:00Z,28.4460,-96.3961,3.921,1111122 
TCOON,ioos:station:TCOON:057:1,2017-09-07T21:18:00Z,28.4460,-96.3961,3.933,1111122 
TCOON,ioos:station:TCOON:057:1,2017-09-07T22:18:00Z,28.4460,-96.3961,3.951,1111122 
TCOON,ioos:station:TCOON:057:1,2017-09-07T23:18:00Z,28.4460,-96.3961,3.954,1111122 
TCOON,ioos:station:TCOON:057:1,2017-09-08T00:18:00Z,28.4460,-96.3961,3.966,1111122 
TCOON,ioos:station:TCOON:057:1,2017-09-08T01:18:00Z,28.4460,-96.3961,3.98,1111122 
TCOON,ioos:station:TCOON:057:1,2017-09-08T02:36:00Z,28.4460,-96.3961,3.963,1111122 
TCOON,ioos:station:TCOON:057:1,2017-09-08T03:18:00Z,28.4460,-96.3961,3.957,1111122 
TCOON,ioos:station:TCOON:057:1,2017-09-08T04:18:00Z,28.4460,-96.3961,3.959,1111122 
TCOON,ioos:station:TCOON:057:1,2017-09-08T05:18:00Z,28.4460,-96.3961,3.934,1111122 
TCOON,ioos:station:TCOON:057:1,2017-09-08T06:18:00Z,28.4460,-96.3961,3.926,1111122 
TCOON,ioos:station:TCOON:057:1,2017-09-08T07:18:00Z,28.4460,-96.3961,3.919,1111122 
TCOON,ioos:station:TCOON:057:1,2017-09-08T08:18:00Z,28.4460,-96.3961,3.935,1111122 
TCOON,ioos:station:TCOON:057:1,2017-09-08T09:18:00Z,28.4460,-96.3961,3.957,1111122 
TCOON,ioos:station:TCOON:057:1,2017-09-08T10:18:00Z,28.4460,-96.3961,4.005,1111122 
TCOON,ioos:station:TCOON:057:1,2017-09-08T11:18:00Z,28.4460,-96.3961,4.018,1111122 
TCOON,ioos:station:TCOON:057:1,2017-09-08T12:18:00Z,28.4460,-96.3961,4.009,1111122 
TCOON,ioos:station:TCOON:057:1,2017-09-08T13:18:00Z,28.4460,-96.3961,4.004,1111122 
TCOON,ioos:station:TCOON:057:1,2017-09-08T14:18:00Z,28.4460,-96.3961,4.001,1111122 
TCOON,ioos:station:TCOON:057:1,2017-09-08T15:18:00Z,28.4460,-96.3961,3.986,1111122 
TCOON,ioos:station:TCOON:057:1,2017-09-08T16:18:00Z,28.4460,-96.3961,3.97,1111122 
TCOON,ioos:station:TCOON:057:1,2017-09-08T17:18:00Z,28.4460,-96.3961,3.958,1111122 
TCOON,ioos:station:TCOON:057:1,2017-09-08T18:18:00Z,28.4460,-96.3961,3.939,1111122 
TCOON,ioos:station:TCOON:057:1,2017-09-08T19:18:00Z,28.4460,-96.3961,3.947,1111122 
TCOON,ioos:station:TCOON:057:1,2017-09-08T20:18:00Z,28.4460,-96.3961,3.967,1111122 
TCOON,ioos:station:TCOON:057:1,2017-09-08T21:18:00Z,28.4460,-96.3961,3.968,1111122 
TCOON,ioos:station:TCOON:057:1,2017-09-08T22:18:00Z,28.4460,-96.3961,3.982,1111122 
TCOON,ioos:station:TCOON:057:1,2017-09-08T23:18:00Z,28.4460,-96.3961,4.002,1111122 
TCOON,ioos:station:TCOON:057:1,2017-09-09T00:18:00Z,28.4460,-96.3961,4.015,1111122 
TCOON,ioos:station:TCOON:057:1,2017-09-09T01:18:00Z,28.4460,-96.3961,4.026,1111122 
TCOON,ioos:station:TCOON:057:1,2017-09-09T02:18:00Z,28.4460,-96.3961,4.018,1111122 
TCOON,ioos:station:TCOON:057:1,2017-09-09T03:18:00Z,28.4460,-96.3961,4.012,1111122 
TCOON,ioos:station:TCOON:057:1,2017-09-09T04:18:00Z,28.4460,-96.3961,4.001,1111122 
TCOON,ioos:station:TCOON:057:1,2017-09-09T05:18:00Z,28.4460,-96.3961,3.983,1111122 
TCOON,ioos:station:TCOON:057:1,2017-09-09T06:18:00Z,28.4460,-96.3961,3.978,1111122 
TCOON,ioos:station:TCOON:057:1,2017-09-09T07:18:00Z,28.4460,-96.3961,3.979,1111122 
TCOON,ioos:station:TCOON:057:1,2017-09-09T08:18:00Z,28.4460,-96.3961,3.989,1111122 
TCOON,ioos:station:TCOON:057:1,2017-09-09T09:18:00Z,28.4460,-96.3961,4.013,1111122 
TCOON,ioos:station:TCOON:057:1,2017-09-09T10:18:00Z,28.4460,-96.3961,4.017,1111122 
TCOON,ioos:station:TCOON:057:1,2017-09-09T11:18:00Z,28.4460,-96.3961,4.03,1111122 
TCOON,ioos:station:TCOON:057:1,2017-09-09T12:18:00Z,28.4460,-96.3961,4.034,1111122 
TCOON,ioos:station:TCOON:057:1,2017-09-09T13:18:00Z,28.4460,-96.3961,4.021,1111122 
TCOON,ioos:station:TCOON:057:1,2017-09-09T14:18:00Z,28.4460,-96.3961,4.02,1111122 
TCOON,ioos:station:TCOON:057:1,2017-09-09T15:18:00Z,28.4460,-96.3961,4.007,1111122 
TCOON,ioos:station:TCOON:057:1,2017-09-09T16:18:00Z,28.4460,-96.3961,3.982,1111122 
TCOON,ioos:station:TCOON:057:1,2017-09-09T17:18:00Z,28.4460,-96.3961,3.97,1111122 
TCOON,ioos:station:TCOON:057:1,2017-09-09T18:18:00Z,28.4460,-96.3961,3.961,1111122 
TCOON,ioos:station:TCOON:057:1,2017-09-09T19:18:00Z,28.4460,-96.3961,3.969,1111122 
TCOON,ioos:station:TCOON:057:1,2017-09-09T20:18:00Z,28.4460,-96.3961,3.972,1111122 
TCOON,ioos:station:TCOON:057:1,2017-09-09T21:18:00Z,28.4460,-96.3961,3.978,1111122 
TCOON,ioos:station:TCOON:057:1,2017-09-09T22:18:00Z,28.4460,-96.3961,3.999,1111122 
TCOON,ioos:station:TCOON:057:1,2017-09-09T23:18:00Z,28.4460,-96.3961,4.018,1111122 
TCOON,ioos:station:TCOON:057:1,2017-09-10T00:18:00Z,28.4460,-96.3961,4.046,1111122 
TCOON,ioos:station:TCOON:057:1,2017-09-10T01:18:00Z,28.4460,-96.3961,4.068,1111122 
TCOON,ioos:station:TCOON:057:1,2017-09-10T02:18:00Z,28.4460,-96.3961,4.085,1111122 
TCOON,ioos:station:TCOON:057:1,2017-09-10T03:18:00Z,28.4460,-96.3961,4.081,1111122 
TCOON,ioos:station:TCOON:057:1,2017-09-10T04:18:00Z,28.4460,-96.3961,4.089,1111122 
TCOON,ioos:station:TCOON:057:1,2017-09-10T05:18:00Z,28.4460,-96.3961,4.071,1111122 
TCOON,ioos:station:TCOON:057:1,2017-09-10T06:18:00Z,28.4460,-96.3961,4.061,1111122 
TCOON,ioos:station:TCOON:057:1,2017-09-10T07:18:00Z,28.4460,-96.3961,4.053,1111122 
TCOON,ioos:station:TCOON:057:1,2017-09-10T08:18:00Z,28.4460,-96.3961,4.058,1111122 
TCOON,ioos:station:TCOON:057:1,2017-09-10T09:18:00Z,28.4460,-96.3961,4.037,1111122 
TCOON,ioos:station:TCOON:057:1,2017-09-10T10:18:00Z,28.4460,-96.3961,4.038,1111122 
TCOON,ioos:station:TCOON:057:1,2017-09-10T11:18:00Z,28.4460,-96.3961,4.029,1111122 
TCOON,ioos:station:TCOON:057:1,2017-09-10T12:18:00Z,28.4460,-96.3961,4.01,1111122 
TCOON,ioos:station:TCOON:057:1,2017-09-10T13:18:00Z,28.4460,-96.3961,4.012,1111122 
TCOON,ioos:station:TCOON:057:1,2017-09-10T14:18:00Z,28.4460,-96.3961,3.988,1111122 
TCOON,ioos:station:TCOON:057:1,2017-09-10T15:18:00Z,28.4460,-96.3961,3.965,1111122 
TCOON,ioos:station:TCOON:057:1,2017-09-10T16:18:00Z,28.4460,-96.3961,3.922,1111122 
TCOON,ioos:station:TCOON:057:1,2017-09-10T17:18:00Z,28.4460,-96.3961,3.906,1111122 
TCOON,ioos:station:TCOON:057:1,2017-09-10T18:18:00Z,28.4460,-96.3961,3.89,1111122 
TCOON,ioos:station:TCOON:057:1,2017-09-10T19:18:00Z,28.4460,-96.3961,3.896,1111122 
TCOON,ioos:station:TCOON:057:1,2017-09-10T20:24:00Z,28.4460,-96.3961,3.902,1111122 
TCOON,ioos:station:TCOON:057:1,2017-09-10T21:18:00Z,28.4460,-96.3961,3.907,1111122 
TCOON,ioos:station:TCOON:057:1,2017-09-10T22:18:00Z,28.4460,-96.3961,3.931,1111122 
TCOON,ioos:station:TCOON:057:1,2017-09-10T23:18:00Z,28.4460,-96.3961,3.951,1111122 
TCOON,ioos:station:TCOON:057:1,2017-09-11T00:18:00Z,28.4460,-96.3961,3.963,1111122 
TCOON,ioos:station:TCOON:057:1,2017-09-11T01:18:00Z,28.4460,-96.3961,3.986,1111122 
TCOON,ioos:station:TCOON:057:1,2017-09-11T02:18:00Z,28.4460,-96.3961,4.02,1111122 
TCOON,ioos:station:TCOON:057:1,2017-09-11T03:18:00Z,28.4460,-96.3961,4.04,1111122 
TCOON,ioos:station:TCOON:057:1,2017-09-11T04:18:00Z,28.4460,-96.3961,4.063,1111122 
TCOON,ioos:station:TCOON:057:1,2017-09-11T05:18:00Z,28.4460,-96.3961,4.082,1111122 
TCOON,ioos:station:TCOON:057:1,2017-09-11T06:18:00Z,28.4460,-96.3961,4.094,1111122 
TCOON,ioos:station:TCOON:057:1,2017-09-11T07:18:00Z,28.4460,-96.3961,4.09,1111122 
TCOON,ioos:station:TCOON:057:1,2017-09-11T08:18:00Z,28.4460,-96.3961,4.084,1111122 
TCOON,ioos:station:TCOON:057:1,2017-09-11T09:18:00Z,28.4460,-96.3961,4.095,1111122 
TCOON,ioos:station:TCOON:057:1,2017-09-11T10:18:00Z,28.4460,-96.3961,4.105,1111122 
TCOON,ioos:station:TCOON:057:1,2017-09-11T11:18:00Z,28.4460,-96.3961,4.096,1111122 
TCOON,ioos:station:TCOON:057:1,2017-09-11T12:18:00Z,28.4460,-96.3961,4.093,1111122 
TCOON,ioos:station:TCOON:057:1,2017-09-11T13:18:00Z,28.4460,-96.3961,4.079,1111122 
TCOON,ioos:station:TCOON:057:1,2017-09-11T14:18:00Z,28.4460,-96.3961,4.046,1111122 
TCOON,ioos:station:TCOON:057:1,2017-09-11T15:18:00Z,28.4460,-96.3961,4.009,1111122 
TCOON,ioos:station:TCOON:057:1,2017-09-11T16:18:00Z,28.4460,-96.3961,3.964,1111122 
TCOON,ioos:station:TCOON:057:1,2017-09-11T17:18:00Z,28.4460,-96.3961,3.934,1111122 
TCOON,ioos:station:TCOON:057:1,2017-09-11T18:18:00Z,28.4460,-96.3961,3.917,1111122 
TCOON,ioos:station:TCOON:057:1,2017-09-11T19:18:00Z,28.4460,-96.3961,3.911,1111122 
TCOON,ioos:station:TCOON:057:1,2017-09-11T20:18:00Z,28.4460,-96.3961,3.904,1111122 
TCOON,ioos:station:TCOON:057:1,2017-09-11T21:18:00Z,28.4460,-96.3961,3.902,1111122 
TCOON,ioos:station:TCOON:057:1,2017-09-11T22:18:00Z,28.4460,-96.3961,3.914,1111122 
TCOON,ioos:station:TCOON:057:1,2017-09-11T23:18:00Z,28.4460,-96.3961,3.925,1111122 
TCOON,ioos:station:TCOON:057:1,2017-09-12T00:18:00Z,28.4460,-96.3961,3.963,1111122 
TCOON,ioos:station:TCOON:057:1,2017-09-12T01:18:00Z,28.4460,-96.3961,3.972,1111122 
TCOON,ioos:station:TCOON:057:1,2017-09-12T02:18:00Z,28.4460,-96.3961,3.995,1111122 
TCOON,ioos:station:TCOON:057:1,2017-09-12T03:18:00Z,28.4460,-96.3961,4.042,1111122 
TCOON,ioos:station:TCOON:057:1,2017-09-12T04:18:00Z,28.4460,-96.3961,4.037,1111122 
TCOON,ioos:station:TCOON:057:1,2017-09-12T05:18:00Z,28.4460,-96.3961,4.045,1111122 
TCOON,ioos:station:TCOON:057:1,2017-09-12T06:18:00Z,28.4460,-96.3961,4.057,1111122 
TCOON,ioos:station:TCOON:057:1,2017-09-12T07:18:00Z,28.4460,-96.3961,4.061,1111122 
TCOON,ioos:station:TCOON:057:1,2017-09-12T08:18:00Z,28.4460,-96.3961,4.055,1111122 
TCOON,ioos:station:TCOON:057:1,2017-09-12T09:18:00Z,28.4460,-96.3961,4.049,1111122 
TCOON,ioos:station:TCOON:057:1,2017-09-12T10:18:00Z,28.4460,-96.3961,4.05,1111122 
TCOON,ioos:station:TCOON:057:1,2017-09-12T11:18:00Z,28.4460,-96.3961,4.031,1111122 
TCOON,ioos:station:TCOON:057:1,2017-09-12T12:18:00Z,28.4460,-96.3961,4.019,1111122 
TCOON,ioos:station:TCOON:057:1,2017-09-12T13:18:00Z,28.4460,-96.3961,4.011,1111122 
TCOON,ioos:station:TCOON:057:1,2017-09-12T14:18:00Z,28.4460,-96.3961,3.975,1111122 
TCOON,ioos:station:TCOON:057:1,2017-09-12T15:18:00Z,28.4460,-96.3961,3.938,1111122 
TCOON,ioos:station:TCOON:057:1,2017-09-12T16:18:00Z,28.4460,-96.3961,3.899,1111122 
TCOON,ioos:station:TCOON:057:1,2017-09-12T17:18:00Z,28.4460,-96.3961,3.856,1111122 
TCOON,ioos:station:TCOON:057:1,2017-09-12T18:18:00Z,28.4460,-96.3961,3.814,1111122 
TCOON,ioos:station:TCOON:057:1,2017-09-12T19:18:00Z,28.4460,-96.3961,3.793,1111122 
TCOON,ioos:station:TCOON:057:1,2017-09-12T20:18:00Z,28.4460,-96.3961,3.767,1111122 
TCOON,ioos:station:TCOON:057:1,2017-09-12T21:18:00Z,28.4460,-96.3961,3.744,1111122 
TCOON,ioos:station:TCOON:057:1,2017-09-12T22:18:00Z,28.4460,-96.3961,3.72,1111122 
TCOON,ioos:station:TCOON:057:1,2017-09-12T23:18:00Z,28.4460,-96.3961,3.713,1111122 
TCOON,ioos:station:TCOON:057:1,2017-09-13T00:18:00Z,28.4460,-96.3961,3.703,1111122 
TCOON,ioos:station:TCOON:057:1,2017-09-13T01:18:00Z,28.4460,-96.3961,3.702,1111122 
TCOON,ioos:station:TCOON:057:1,2017-09-13T02:18:00Z,28.4460,-96.3961,3.719,1111122 
TCOON,ioos:station:TCOON:057:1,2017-09-13T03:18:00Z,28.4460,-96.3961,3.751,1111122 
TCOON,ioos:station:TCOON:057:1,2017-09-13T04:18:00Z,28.4460,-96.3961,3.775,1111122 
TCOON,ioos:station:TCOON:057:1,2017-09-13T05:18:00Z,28.4460,-96.3961,3.803,1111122 
TCOON,ioos:station:TCOON:057:1,2017-09-13T06:18:00Z,28.4460,-96.3961,3.832,1111122 
TCOON,ioos:station:TCOON:057:1,2017-09-13T07:18:00Z,28.4460,-96.3961,3.85,1111122 
TCOON,ioos:station:TCOON:057:1,2017-09-13T08:18:00Z,28.4460,-96.3961,3.872,1111122 
TCOON,ioos:station:TCOON:057:1,2017-09-13T09:18:00Z,28.4460,-96.3961,3.872,1111122 
TCOON,ioos:station:TCOON:057:1,2017-09-13T10:18:00Z,28.4460,-96.3961,3.879,1111122 
TCOON,ioos:station:TCOON:057:1,2017-09-13T11:18:00Z,28.4460,-96.3961,3.887,1111122 
TCOON,ioos:station:TCOON:057:1,2017-09-13T12:18:00Z,28.4460,-96.3961,3.89,1111122 
TCOON,ioos:station:TCOON:057:1,2017-09-13T13:18:00Z,28.4460,-96.3961,3.879,1111122 
TCOON,ioos:station:TCOON:057:1,2017-09-13T14:18:00Z,28.4460,-96.3961,3.867,1111122 
TCOON,ioos:station:TCOON:057:1,2017-09-13T15:18:00Z,28.4460,-96.3961,3.844,1111122 
TCOON,ioos:station:TCOON:057:1,2017-09-13T16:18:00Z,28.4460,-96.3961,3.813,1111122 
TCOON,ioos:station:TCOON:057:1,2017-09-13T17:18:00Z,28.4460,-96.3961,3.779,1111122 
TCOON,ioos:station:TCOON:057:1,2017-09-13T18:18:00Z,28.4460,-96.3961,3.738,1111122 
TCOON,ioos:station:TCOON:057:1,2017-09-13T19:18:00Z,28.4460,-96.3961,3.702,1111122 
TCOON,ioos:station:TCOON:057:1,2017-09-13T20:18:00Z,28.4460,-96.3961,3.667,1111122 
TCOON,ioos:station:TCOON:057:1,2017-09-13T21:18:00Z,28.4460,-96.3961,3.631,1111122 
TCOON,ioos:station:TCOON:057:1,2017-09-13T22:18:00Z,28.4460,-96.3961,3.631,1111122 
TCOON,ioos:station:TCOON:057:1,2017-09-13T23:18:00Z,28.4460,-96.3961,3.61,1111122 
TCOON,ioos:station:TCOON:057:1,2017-09-14T00:18:00Z,28.4460,-96.3961,3.607,1111122 
TCOON,ioos:station:TCOON:057:1,2017-09-14T01:18:00Z,28.4460,-96.3961,3.615,1111122 
TCOON,ioos:station:TCOON:057:1,2017-09-14T02:18:00Z,28.4460,-96.3961,3.621,1111122 
TCOON,ioos:station:TCOON:057:1,2017-09-14T03:18:00Z,28.4460,-96.3961,3.64,1111122 
TCOON,ioos:station:TCOON:057:1,2017-09-14T04:18:00Z,28.4460,-96.3961,3.666,1111122 
TCOON,ioos:station:TCOON:057:1,2017-09-14T05:18:00Z,28.4460,-96.3961,3.697,1111122 
TCOON,ioos:station:TCOON:057:1,2017-09-14T06:18:00Z,28.4460,-96.3961,3.731,1111122 
TCOON,ioos:station:TCOON:057:1,2017-09-14T07:18:00Z,28.4460,-96.3961,3.765,1111122 
TCOON,ioos:station:TCOON:057:1,2017-09-14T08:18:00Z,28.4460,-96.3961,3.778,1111122 
TCOON,ioos:station:TCOON:057:1,2017-09-14T09:18:00Z,28.4460,-96.3961,3.804,1111122 
TCOON,ioos:station:TCOON:057:1,2017-09-14T10:18:00Z,28.4460,-96.3961,3.809,1111122 